KCALAKEH4 Weather Reports


Display with metric or nautical units.
time (UTC)temp
F
wind
direction
speed
MPH
gust
MPH
rain 1hr
in
rain 24hr
in
rain mn
in
humidity
%
barometer
mb
20210804203024 97 130 6.0 12.0 0.00 0.00 0.00 14 1008.6
20210804201613 96 115 4.0 9.0 0.00 0.00 0.00 15 1008.8
20210804200050 96 212 2.0 12.0 0.00 0.00 0.00 15 1008.8
20210804194543 96 192 7.0 12.0 0.00 0.00 0.00 15 1009.0
20210804193030 95 264 3.0 11.0 0.00 0.00 0.00 15 1008.9
20210804191513 96 207 2.0 10.0 0.00 0.00 0.00 15 1009.1
20210804190016 96 164 3.0 10.0 0.00 0.00 0.00 15 1009.0
20210804184524 95 61 4.0 12.0 0.00 0.00 0.00 16 1009.1
20210804183010 95 211 2.0 12.0 0.00 0.00 0.00 16 1009.2
20210804181529 95 228 0.0 11.0 0.00 0.00 0.00 16 1009.2
20210804180018 96 222 4.0 11.0 0.00 0.00 0.00 15 1009.2
20210804174535 95 186 3.0 8.0 0.00 0.00 0.00 15 1009.1
20210804173004 95 272 2.0 8.0 0.00 0.00 0.00 15 1009.0
20210804171508 94 90 1.0 4.0 0.00 0.00 0.00 15 1009.0
20210804170136 94 5 0.0 5.0 0.00 0.00 0.00 15 1009.0
20210804164934 93 342 1.0 5.0 0.00 0.00 0.00 15 1009.0
20210804163101 92 348 3.0 6.0 0.00 0.00 0.00 15 1009.0
20210804161732 92 360 1.0 6.0 0.00 0.00 0.00 16 1009.1
20210804160125 91 345 4.0 9.0 0.00 0.00 0.00 16 1009.1
20210804154617 91 33 0.0 3.0 0.00 0.00 0.00 16 1009.2
20210804153105 91 360 1.0 5.0 0.00 0.00 0.00 16 1009.2
20210804151602 90 5 0.0 0.0 0.00 0.00 0.00 16 1009.3
20210804150128 87 148 0.0 0.0 0.00 0.00 0.00 18 1009.2
20210804144621 83 148 0.0 0.0 0.00 0.00 0.00 20 1009.2
20210804143047 79 148 0.0 0.0 0.00 0.00 0.00 25 1009.2
20210804141608 78 148 0.0 0.0 0.00 0.00 0.00 25 1009.1
20210804140047 77 148 0.0 5.0 0.00 0.00 0.00 25 1009.1
20210804134538 75 148 0.0 0.0 0.00 0.00 0.00 26 1009.0
20210804133046 77 148 0.0 0.0 0.00 0.00 0.00 24 1008.9
20210804131554 72 62 0.0 1.0 0.00 0.00 0.00 28 1008.9
20210804130040 71 311 0.0 3.0 0.00 0.00 0.00 29 1008.9
20210804124546 68 312 0.0 0.0 0.00 0.00 0.00 32 1008.8
20210804123105 68 312 0.0 1.0 0.00 0.00 0.00 33 1008.7
20210804121609 68 312 0.0 0.0 0.00 0.00 0.00 32 1008.5
20210804120103 68 312 0.0 0.0 0.00 0.00 0.00 33 1008.6
20210804114550 67 312 0.0 0.0 0.00 0.00 0.00 32 1008.7
20210804113024 68 312 0.0 0.0 0.00 0.00 0.00 32 1008.7
20210804111523 69 312 0.0 0.0 0.00 0.00 0.00 31 1008.8
20210804110016 69 312 0.0 0.0 0.00 0.00 0.00 30 1008.7
20210804104513 71 312 0.0 0.0 0.00 0.00 0.00 28 1008.8
20210804103008 74 312 0.0 0.0 0.00 0.00 0.00 26 1008.8
20210804101503 76 312 0.0 0.0 0.00 0.00 0.00 25 1008.8
20210804100150 77 312 0.0 0.0 0.00 0.00 0.00 24 1008.9
20210804094636 78 311 0.0 0.0 0.00 0.00 0.00 23 1009.0
20210804093216 79 315 0.0 2.0 0.00 0.00 0.00 22 1009.0
20210804091624 79 350 0.0 0.0 0.00 0.00 0.00 22 1009.0
20210804090152 79 360 0.0 4.0 0.00 0.00 0.00 21 1009.2
20210804084610 79 360 0.0 0.0 0.00 0.00 0.00 21 1009.2
20210804083202 80 9 0.0 5.0 0.00 0.00 0.00 21 1009.3
20210804081609 79 13 0.0 3.0 0.00 0.00 0.00 21 1009.3
20210804080102 80 5 0.0 4.0 0.00 0.00 0.00 21 1009.4
20210804074644 79 315 0.0 2.0 0.00 0.00 0.00 21 1009.5
20210804073115 79 341 0.0 0.0 0.00 0.00 0.00 21 1009.5
20210804071611 79 340 0.0 1.0 0.00 0.00 0.00 21 1009.7
20210804070106 79 348 0.0 0.0 0.00 0.00 0.00 21 1009.7
20210804064637 79 345 2.0 5.0 0.00 0.00 0.00 21 1009.6
20210804063102 80 326 0.0 0.0 0.00 0.00 0.00 21 1009.7
20210804061604 80 317 0.0 3.0 0.00 0.00 0.00 21 1009.6
20210804060116 80 304 0.0 0.0 0.00 0.00 0.00 21 1009.6
20210804053114 80 22 0.0 9.0 0.00 0.00 0.00 21 1009.6
20210804051858 80 329 0.0 4.0 0.00 0.00 0.00 21 1009.6
20210804050128 80 338 0.0 4.0 0.00 0.00 0.00 22 1009.6
20210804044612 80 348 0.0 0.0 0.00 0.00 0.00 22 1009.6
20210804043129 80 311 0.0 4.0 0.00 0.00 0.00 24 1009.6
20210804041600 81 317 0.0 0.0 0.00 0.00 0.00 25 1009.4
20210804040041 80 317 0.0 3.0 0.00 0.00 0.00 25 1009.2
20210804034551 81 328 0.0 0.0 0.00 0.00 0.00 26 1009.2
20210804033038 81 350 0.0 1.0 0.00 0.00 0.00 25 1009.2
20210804031625 82 350 0.0 0.0 0.00 0.00 0.00 24 1009.1
20210804030057 85 350 0.0 0.0 0.00 0.00 0.00 22 1009.0
20210804024550 87 350 0.0 3.0 0.00 0.00 0.00 19 1008.9
20210804023048 89 236 0.0 0.0 0.00 0.00 0.00 15 1008.8
20210804021620 90 262 1.0 9.0 0.00 0.00 0.00 15 1008.7
20210804020141 90 180 6.0 13.0 0.00 0.00 0.00 15 1008.5
20210804014551 91 115 2.0 14.0 0.00 0.00 0.00 15 1008.5
20210804013118 91 192 3.0 12.0 0.00 0.00 0.00 14 1008.5
20210804011548 92 229 8.0 15.0 0.00 0.00 0.00 14 1008.5
20210804010056 92 206 7.0 14.0 0.00 0.00 0.00 14 1008.6
20210804004522 92 217 6.0 17.0 0.00 0.00 0.00 14 1008.7
20210804003037 93 207 6.0 18.0 0.00 0.00 0.00 14 1008.9
20210804001526 93 217 6.0 17.0 0.00 0.00 0.00 13 1009.0
20210804000031 94 288 6.0 18.0 0.00 0.00 0.00 13 1009.0
20210803234536 94 242 9.0 17.0 0.00 0.00 0.00 13 1009.2
20210803233128 94 200 8.0 18.0 0.00 0.00 0.00 13 1009.3
20210803231550 94 240 6.0 17.0 0.00 0.00 0.00 13 1009.3
20210803230024 95 250 5.0 14.0 0.00 0.00 0.00 13 1009.5
20210803224555 96 202 6.0 14.0 0.00 0.00 0.00 13 1009.7
20210803223007 96 150 5.0 12.0 0.00 0.00 0.00 13 1009.9
20210803221505 96 140 4.0 15.0 0.00 0.00 0.00 13 1010.0
20210803220024 95 259 4.0 18.0 0.00 0.00 0.00 13 1010.2
20210803214505 96 204 4.0 11.0 0.00 0.00 0.00 12 1010.3
20210803213234 96 120 5.0 15.0 0.00 0.00 0.00 12 1010.4
20210803211759 96 243 5.0 13.0 0.00 0.00 0.00 12 1010.4
20210803210143 96 203 0.0 5.0 0.00 0.00 0.00 11 1010.7
20210803204749 96 126 5.0 10.0 0.00 0.00 0.00 11 1010.8